Location: Bjelajci
(45.0103°N, 16.1758°E)
Time: 04:15:34
(UTC+00:00)

Abrixas rocket - Pass Details

Date: 14 July 2020
Orbit: 338 x 346 km, 48.4° (Epoch: 10 August)

Event Time Altitude Azimuth Distance (km) Brightness Sun altitude
Exits shadow 00:02:43 34° 31° (NNE) 583 3.5 -21.9°
Drops below altitude 10° 00:04:52 10° 72° (ENE) 1,282 5.1 -21.8°
Sets 00:06:57 0° 81° (E) 2,120 6.2 -21.7°
